Regional Weather Roundup
Issued by NWS Little Rock, AR

Home | Current Version | Previous Version | Text Only | Print | Product List | Glossary On
Versions: 1 2 3 4 5 6 7 8 9 10 11 12 13 14 15 16 17 18 19 20 21 22 23 24 25 26 27 28 29 30 31 32 33 34 35 36 37 38 39 40 41 42 43 44 45 46 47 48 49 50
000
ASUS44 KLZK 190205
RWRLZK

WEATHER ROUNDUP FOR ARKANSAS
NATIONAL WEATHER SERVICE LITTLE ROCK AR
900 PM CDT THU SEP 18 2014

NOTE: "FAIR" INDICATES FEW OR NO CLOUDS BELOW 12,000 FEET WITH NO
SIGNIFICANT WEATHER AND/OR OBSTRUCTIONS TO VISIBILITY.

ARZ001-003-010-029-190300-
NORTHWEST ARKANSAS

CITY           SKY/WX    TMP DP  RH WIND       PRES   REMARKS
FAYETTEVILLE   MOCLDY    69  65  86 E6        29.99R
FORT SMITH     CLEAR     75  68  78 SE6       29.94R
HARRISON       CLOUDY    64  64 100 E8        30.04R FOG
BENTONVILLE    CLEAR     68  63  83 E10       30.00R
ROGERS         CLEAR     67  62  84 E13       30.01R
SILOAM SPGS    CLEAR     70  61  73 E7        30.00R
HIGHFILL       CLEAR     69  64  84 E8        29.99R
SPRINGDALE     CLEAR     70  64  83 E7        30.01R
$$

ARZ004-005-016-190300-
NORTH CENTRAL ARKANSAS

CITY           SKY/WX    TMP DP  RH WIND       PRES   REMARKS
BATESVILLE     CLOUDY    68  61  77 CALM      30.02R
FLIPPIN        MOCLDY    64  61  88 CALM      30.04R
MTN HOME       CLOUDY    65  64  97 CALM      30.03R FOG
$$

ARZ040-041-190300-
WEST CENTRAL ARKANSAS

CITY           SKY/WX    TMP DP  RH WIND       PRES   REMARKS
MENA           PTCLDY    73  70  88 CALM      29.97R
MOUNT IDA      CLEAR     72  68  87 CALM      29.95R
$$

ARZ009-017-025-026-028-190300-
NORTHEAST ARKANSAS

CITY           SKY/WX    TMP DP  RH WIND       PRES   REMARKS
CORNING          N/A     68  64  88 NE6       30.02R
JONESBORO      CLEAR     65  63  93 NE5       30.00R
NEWPORT        CLOUDY    67  64  90 NE5       30.02R
WALNUT RIDGE   CLEAR     64  61  88 N3        30.01R
BLYTHEVILLE    MOCLDY    66  64  93 NE3       30.01R
$$

ARZ022-023-033-042-044-190300-
CENTRAL ARKANSAS

CITY           SKY/WX    TMP DP  RH WIND       PRES   REMARKS
LITTLE ROCK    PTCLDY    72  66  81 NE8       29.97R
N LITTLE ROCK  PTCLDY    71  67  89 NE8       29.97R
JACKSONVILLE   CLEAR     71  65  82 NE6       29.98R
SEARCY         MOCLDY    71  65  81 N13       30.00R
HOT SPRINGS    CLOUDY    75  69  81 E7        29.96R
RUSSELLVILLE   CLOUDY    72  66  81 E6        29.98R
CLINTON        CLOUDY    68  66  94 CALM      30.02R FOG
$$

ARZ036-190300-
EAST ARKANSAS

CITY           SKY/WX    TMP DP  RH WIND       PRES   REMARKS
WEST MEMPHIS   CLOUDY    73  67  81 NE7       29.98R
$$

ARZ050-053-066-070-073-190300-
SOUTHWEST ARKANSAS

CITY           SKY/WX    TMP DP  RH WIND       PRES   REMARKS
ARKADELPHIA    FAIR      75  74  97 CALM      29.95R FOG
CAMDEN         MOCLDY    73  68  83 NE5       29.93R
TEXARKANA      MOCLDY    74  74 100 E3        29.92R
EL DORADO      CLOUDY    75  71  87 CALM      29.94R
DE QUEEN       MOCLDY    73  73 100 E3        29.91R FOG
$$

ARZ056-057-069-190300-
SOUTHEAST ARKANSAS

CITY           SKY/WX    TMP DP  RH WIND       PRES   REMARKS
PINE BLUFF     CLEAR     69  67  93 E6        29.96R
STUTTGART      PTCLDY    72  66  83 SE6       29.99R
MONTICELLO     PTCLDY    72  68  87 E5        29.94R

$$




USA.gov is the U.S. government's official web portal to all federal, state and local government web resources and services.